Flag for Canada Weather past 2 weeks in Rothesay, New Brunswick, Canada

Now
48 °F

Partly sunny.


Feels Like: 42 °F
Forecast: 41 / 51 °F
Wind: 18 mph from North

Location: Saint John

Current Time: Jun 3, 2015 at 3:12:57 PM

Latest Report: Jun 3, 2015 at 2:00 PM


Visibility: 15 mi

Pressure: 30.16 "Hg

Humidity: 82%

Dew point: 43 °F

Location of RothesayLocation

Historic Weather in Rothesay — Graph

°F

Rothesay temperature yesterday

Maximum temperature yesterday: 45 °F (at 1:00 AM)
Minimum temperature yesterday: 41 °F (at 12:00 AM)
Average temperature yesterday: 44 °F

Past Weeks' High & Low Weather Summary

 TemperatureHumidityPressure
High75 °F (May 29, 5:00 PM)100% (May 19, 9:00 PM)30.41 "Hg (May 19, 9:00 PM)
Low32 °F (May 23, 5:00 AM)35% (May 23, 6:00 PM)29.49 "Hg (May 20, 5:00 PM)
Average50 °F84%30.06 "Hg
* Reported May 19 2:00 PM — Jun 3 2:00 PM, Rothesay, Weather by CustomWeather, © 2015

Note: Actual official high and low records may vary slightly from our data, if they occured in-between our weather recording intervals... More about our weather records

Advertising

Rothesay weather history for previous 24 hours

 ConditionsComfort  
Time TempWeatherWind HumidityBarometerVisibility
2:00 PM
Wed, Jun 3
48 °FPartly sunny.18 mph82%30.16 "Hg15 mi
1:00 PM48 °FPartly sunny.15 mph82%30.16 "Hg15 mi
12:00 PM46 °FSprinkles. Mostly cloudy.16 mph87%30.16 "Hg10 mi
11:00 AM46 °FMore clouds than sun.13 mph87%30.14 "Hg8 mi
10:00 AM45 °FLow clouds.13 mph87%30.14 "Hg10 mi
9:00 AM43 °FFog.12 mph93%30.14 "Hg6 mi
8:00 AM43 °FFog.12 mph93%30.13 "Hg3 mi
7:00 AM43 °FFog.10 mph93%30.12 "Hg3 mi
6:00 AM43 °FFog.7 mph93%30.11 "Hg3 mi
5:00 AM41 °FFog.8 mph100%30.11 "Hg3 mi
4:00 AM41 °FLight rain. Fog.8 mph100%30.11 "Hg2 mi
3:00 AM43 °FLight rain. Fog.6 mph93%30.12 "Hg2 mi
2:00 AM43 °FLight rain. Fog.5 mph93%30.12 "Hg2 mi
1:00 AM43 °FLight rain. Fog.3 mph100%30.13 "Hg2 mi
12:00 AM43 °FLight rain. Fog.3 mph100%30.15 "Hg2 mi
11:00 PM
Tue, Jun 2
43 °FLight rain. Fog.6 mph100%30.16 "Hg2 mi
10:00 PM43 °FLight rain. Fog.7 mph100%30.15 "Hg1 mi
9:00 PM45 °FLight rain. Fog.10 mph93%30.15 "Hg2 mi
8:00 PM45 °FLight rain. Fog.8 mph93%30.16 "Hg2 mi
7:00 PM45 °FLight rain. Fog.10 mph93%30.18 "Hg3 mi
6:00 PM45 °FLight rain. Fog.13 mph87%30.20 "Hg6 mi
5:00 PM45 °FLight rain. Fog.14 mph87%30.20 "Hg6 mi
4:00 PM45 °FLight rain. Fog.14 mph93%30.23 "Hg6 mi
3:00 PM45 °FLight rain. Fog.14 mph87%30.24 "Hg6 mi
Weather by CustomWeather, © 2015

See weather overviewHow to use our weather pages